Wind_Speed
28 30 28 25 23 20 18 16 16 14 17 23 27 22 23 26 22 20 18 22 28 31 30 32 34 37 40 43 46 49 51 49 48 46 44 42 42 43 44 45 49 49 46 45
30 29 25 23 21 20 21 22 22 22 21 26 28 23 28 27 26 25 24 26 28 32 34 33 35 37 41 44 48 51 52 52 52 50 48 47 48 48 50 51 51 49 47 48
26 22 19 21 24 24 26 25 23 21 19 26 28 25 29 28 26 24 25 28 30 33 35 34 34 37 40 43 47 50 52 53 52 52 51 51 52 53 54 53 53 50 49 58
24 21 21 24 25 27 28 23 22 22 23 23 26 23 28 31 29 26 26 29 32 31 32 34 36 38 41 43 45 47 48 50 51 51 52 53 54 55 56 56 57 58 64 67
23 23 26 29 29 28 26 22 20 21 25 27 25 24 28 35 34 30 28 29 30 30 32 35 37 40 41 42 43 44 46 47 48 48 49 50 52 53 55 56 58 62 66 70
22 22 25 28 30 28 24 23 24 26 26 27 24 24 30 38 38 33 29 28 32 36 38 38 37 38 39 40 41 42 43 43 43 44 46 48 50 52 55 58 61 65 68 72
21 23 25 25 27 24 24 25 26 26 26 26 23 25 31 41 41 35 32 35 40 42 42 40 37 36 37 37 37 38 39 40 42 45 46 48 51 54 57 61 64 68 72 76
19 22 22 26 25 25 28 27 27 24 21 19 19 27 37 39 39 37 35 38 41 41 40 38 36 36 36 36 36 37 40 42 45 47 49 51 53 56 60 65 70 74 77 78
19 19 19 25 25 24 25 25 22 24 25 25 25 29 32 33 33 34 36 40 39 36 37 37 38 38 38 39 39 41 43 46 48 51 52 54 57 61 66 70 74 75 74 70
23 27 21 20 26 26 24 24 23 26 28 29 28 28 34 35 36 37 39 39 37 37 40 42 42 41 41 41 42 44 46 48 51 52 54 57 62 66 67 66 64 61 55 50
29 31 30 23 26 28 28 28 29 29 29 31 31 32 40 38 36 37 39 38 38 40 43 45 45 44 43 43 44 46 49 51 52 54 57 61 64 62 58 53 49 44 40 37
33 34 36 35 30 31 32 31 28 32 34 33 30 34 38 37 39 40 39 38 40 44 47 48 47 46 45 45 47 49 51 52 54 56 59 62 59 52 45 43 41 38 37 35
41 40 40 39 38 34 34 32 31 31 31 32 31 36 38 40 41 41 41 42 44 46 48 49 48 47 47 48 49 51 53 54 56 58 60 57 48 40 38 38 38 39 39 39
48 48 48 45 40 35 38 39 38 35 36 35 32 37 40 40 40 40 42 44 46 47 48 49 47 47 48 50 51 53 54 55 57 58 55 46 37 34 34 37 38 39 40 41
54 56 55 52 47 39 38 42 42 42 39 37 36 42 42 41 41 39 39 40 44 48 50 48 47 48 49 51 53 54 55 57 58 55 44 34 31 31 34 36 36 38 41 43
54 60 61 60 55 46 44 46 45 41 40 39 40 45 46 47 43 39 40 44 48 49 48 47 48 49 50 52 54 54 56 58 54 42 31 27 28 30 32 33 36 39 42 44
51 56 59 60 57 49 48 51 47 43 41 40 44 41 41 41 40 43 46 48 48 46 46 47 48 49 51 52 52 55 57 52 39 26 22 23 26 28 30 33 36 40 43 45
49 52 54 54 51 53 52 51 48 45 48 44 44 40 37 40 45 48 48 47 45 45 46 47 48 49 50 50 52 54 47 33 22 19 20 23 25 27 31 34 38 42 44 45
49 50 50 48 48 48 51 55 52 51 52 49 48 48 48 49 48 48 47 43 43 45 46 46 47 48 46 48 49 41 28 19 17 18 21 22 25 29 33 37 42 44 44 43
48 50 50 49 47 46 50 53 54 51 52 56 56 54 50 47 47 47 44 42 43 44 44 45 44 42 44 44 36 24 18 16 17 18 20 24 28 32 36 41 44 45 44 41
37 42 48 48 45 45 48 50 51 52 50 47 46 46 46 45 44 45 45 43 42 42 42 40 38 39 41 33 23 17 15 16 17 19 23 26 31 35 40 44 46 44 42 41
35 40 44 48 49 46 40 43 48 43 35 34 36 37 38 39 40 40 38 38 39 38 36 34 35 37 31 22 16 14 15 16 18 22 26 30 34 39 43 45 45 43 42 41
33 38 40 43 46 45 37 36 42 43 39 36 34 32 32 32 33 34 35 35 34 32 30 31 34 31 21 14 12 13 14 17 21 25 29 33 38 42 44 44 43 42 42 42
20 29 37 40 40 42 43 39 32 28 27 28 28 29 29 29 28 29 29 28 27 26 28 31 29 20 14 11 11 12 15 18 23 27 32 36 40 43 44 44 42 41 42 42
17 21 27 32 33 34 34 29 24 24 24 25 27 27 27 27 27 26 25 23 23 25 27 27 20 13 10 9 10 12 15 20 25 29 33 38 41 43 43 43 42 41 41 41
15 20 25 28 30 33 32 26 21 21 22 24 25 26 27 27 26 24 21 21 23 25 24 18 12 10 8 7 9 12 16 21 26 30 35 39 40 41 42 42 41 41 41 39
Wind_Direction
252 254 258 262 260 256 241 225 236 250 248 245 254 259 252 263 268 264 253 250 259 270 276 284 288 293 299 302 302 304 310 314 313 311 309 307 305 303 301 298 298 294 287 282
251 254 256 252 248 248 247 240 236 225 234 248 253 256 255 263 269 266 257 258 262 269 276 281 285 291 295 297 299 302 305 305 306 306 306 306 305 303 302 300 300 295 290 291
253 252 248 250 242 240 244 245 242 237 244 259 265 258 262 270 272 272 270 272 273 274 280 283 284 284 286 289 292 296 298 300 302 303 304 304 302 301 301 302 301 297 292 297
249 241 232 242 244 243 250 252 249 242 234 244 264 266 267 270 273 274 274 279 283 286 287 284 281 281 283 287 290 293 295 298 300 301 300 300 300 300 301 300 299 296 296 298
247 241 237 241 247 248 251 247 243 252 248 238 242 254 257 263 270 273 273 277 284 291 291 287 285 285 287 290 292 294 295 296 297 298 299 300 300 299 299 298 297 297 297 298
250 241 244 244 252 255 249 245 242 240 245 248 243 237 252 263 270 273 273 278 287 293 294 291 289 289 292 294 295 296 297 298 299 300 300 299 299 298 297 296 296 296 296 296
254 245 240 244 246 249 244 239 243 247 246 250 254 243 250 257 265 270 273 283 292 293 293 292 292 294 297 298 297 297 299 300 301 300 300 299 298 298 297 297 297 296 295 294
247 258 249 250 253 240 247 245 239 240 251 262 252 243 240 244 253 261 269 280 288 290 291 293 297 301 303 303 301 301 302 302 302 301 300 300 300 300 301 301 300 299 297 296
227 246 263 259 259 247 237 249 249 240 239 241 256 265 258 255 257 262 265 276 281 287 292 297 301 306 307 306 304 304 305 304 304 303 303 304 305 305 306 306 304 302 300 298
236 225 227 248 243 249 244 233 242 246 244 243 245 261 268 262 260 264 266 267 271 284 293 298 301 307 310 308 306 305 304 304 305 305 306 307 309 310 310 310 310 308 306 304
253 246 233 235 241 238 251 248 234 237 243 246 252 252 256 262 264 264 263 265 274 286 294 297 301 306 309 309 307 305 305 306 307 308 309 311 312 312 313 314 316 317 317 314
233 243 247 235 235 250 250 253 251 241 239 240 244 255 259 261 264 268 268 271 279 286 292 297 302 307 309 309 307 307 307 308 309 310 312 313 314 314 315 317 319 322 323 322
228 226 233 238 232 237 246 242 243 248 249 248 242 254 258 262 263 266 266 273 281 287 293 298 304 307 308 308 308 308 308 309 310 311 313 314 314 315 316 319 321 322 323 323
231 228 229 233 236 236 249 250 247 248 248 248 244 250 254 258 259 263 269 276 280 286 292 298 304 306 306 307 308 308 308 309 311 312 314 314 313 315 317 320 323 325 327 326
237 235 234 237 238 233 240 252 250 241 238 244 248 249 252 257 261 266 272 277 283 288 292 297 301 303 305 307 307 307 308 310 312 313 312 311 311 314 318 322 326 329 330 329
241 245 243 241 242 238 235 247 253 255 241 231 240 245 246 252 260 269 278 285 288 290 294 298 300 304 306 306 307 308 310 312 313 311 309 309 311 316 321 325 329 331 332 332
245 246 249 249 245 240 238 239 246 253 255 243 238 243 246 252 262 272 280 284 288 292 295 297 301 304 305 306 308 311 313 313 312 310 308 310 315 320 323 327 331 333 334 333
248 247 249 252 250 239 239 239 239 242 246 244 243 249 258 268 272 276 279 284 289 292 294 297 300 302 304 307 310 313 314 314 312 310 311 315 320 323 326 330 332 333 334 334
249 245 243 247 248 244 240 239 238 242 246 249 254 257 263 271 274 276 280 285 289 290 293 296 298 301 305 309 313 314 314 313 312 313 317 321 324 326 329 331 332 332 332 333
245 239 238 239 239 233 235 240 240 242 247 251 254 257 264 269 271 275 280 283 285 287 290 293 297 301 307 312 313 311 310 310 313 318 323 325 326 328 330 331 332 332 332 331
231 229 229 231 234 234 235 238 241 245 247 249 252 256 261 267 273 276 278 281 283 286 290 294 299 305 310 311 307 306 306 310 317 324 327 327 327 329 331 333 333 333 332 331
227 224 224 228 237 239 237 233 235 237 239 249 258 263 266 268 271 274 278 281 284 287 290 295 302 308 307 302 299 300 305 315 325 330 329 328 329 331 333 333 333 332 332 333
242 226 219 223 231 233 231 237 240 240 247 259 264 265 266 267 270 275 279 282 284 286 290 298 305 306 297 288 289 299 311 325 331 331 329 330 331 333 333 334 334 334 334 334
240 215 215 220 225 229 235 237 232 232 246 259 263 264 265 268 273 278 280 280 281 286 295 303 304 294 277 272 289 306 322 331 331 330 330 333 335 335 335 336 339 338 336 337
222 202 206 215 223 230 234 238 243 249 255 258 259 262 266 270 276 280 281 280 285 293 301 301 291 266 253 268 297 317 327 331 331 331 334 338 338 338 338 340 343 341 340 340
220 213 219 230 239 243 243 250 251 249 248 251 256 262 268 273 275 276 277 283 292 298 299 289 260 238 244 279 309 322 330 333 334 338 341 342 342 343 344 343 344 344 344 344
Height
5849 5850 5852 5854 5856 5859 5861 5864 5867 5872 5873 5870 5867 5867 5866 5863 5865 5865 5865 5863 5859 5854 5854 5853 5849 5844 5840 5835 5830 5824 5821 5820 5820 5820 5819 5817 5814 5810 5806 5802 5798 5792 5789 5786
5842 5844 5848 5848 5851 5854 5857 5859 5861 5864 5865 5863 5861 5861 5859 5858 5859 5859 5858 5857 5855 5850 5849 5849 5847 5844 5839 5833 5826 5821 5818 5815 5813 5812 5809 5806 5803 5799 5795 5792 5787 5781 5777 5775
5835 5840 5842 5843 5845 5848 5850 5852 5854 5857 5860 5857 5856 5855 5852 5851 5852 5852 5851 5849 5848 5845 5844 5845 5844 5842 5837 5832 5826 5821 5817 5813 5810 5806 5802 5798 5794 5789 5785 5781 5777 5772 5765 5762
5830 5834 5837 5840 5841 5843 5844 5847 5848 5850 5852 5854 5851 5850 5846 5842 5843 5844 5844 5842 5840 5840 5839 5838 5837 5835 5832 5828 5824 5820 5815 5810 5805 5801 5796 5791 5786 5780 5776 5772 5768 5763 5756 5749
5825 5829 5831 5833 5835 5837 5838 5841 5843 5845 5845 5846 5848 5847 5843 5835 5834 5836 5835 5833 5833 5833 5832 5830 5829 5826 5824 5822 5818 5814 5809 5804 5798 5793 5788 5783 5777 5772 5768 5763 5757 5751 5744 5736
5820 5823 5825 5827 5829 5830 5832 5835 5836 5837 5838 5838 5840 5842 5839 5827 5826 5829 5829 5828 5827 5826 5824 5823 5821 5819 5816 5813 5810 5805 5800 5796 5791 5786 5780 5774 5769 5763 5758 5752 5746 5739 5731 5723
5814 5817 5819 5821 5823 5825 5827 5829 5830 5830 5831 5832 5835 5836 5835 5821 5821 5824 5824 5823 5821 5819 5817 5815 5813 5811 5809 5805 5801 5797 5792 5788 5783 5777 5772 5765 5759 5753 5746 5739 5733 5725 5716 5708
5810 5812 5814 5815 5817 5820 5820 5822 5824 5826 5828 5829 5830 5827 5820 5817 5817 5818 5819 5818 5816 5813 5811 5808 5806 5803 5801 5797 5793 5788 5784 5779 5773 5767 5761 5755 5749 5742 5734 5725 5716 5706 5697 5688
5805 5810 5811 5809 5810 5812 5814 5814 5818 5820 5821 5823 5821 5814 5813 5813 5813 5814 5813 5812 5810 5808 5805 5802 5799 5796 5792 5788 5784 5779 5774 5768 5762 5756 5750 5743 5736 5728 5719 5708 5697 5685 5675 5666
5798 5799 5801 5801 5803 5804 5807 5810 5814 5813 5814 5815 5818 5813 5805 5807 5808 5808 5806 5804 5803 5801 5798 5795 5792 5788 5784 5779 5775 5770 5764 5758 5752 5745 5739 5731 5723 5713 5703 5691 5679 5667 5657 5649
5791 5792 5794 5797 5796 5799 5801 5802 5804 5806 5808 5809 5809 5810 5799 5801 5801 5800 5797 5795 5795 5793 5791 5788 5784 5780 5776 5771 5765 5759 5753 5747 5740 5733 5726 5718 5709 5699 5688 5679 5668 5658 5649 5641
5781 5784 5784 5788 5792 5792 5793 5795 5797 5798 5799 5800 5802 5799 5793 5794 5794 5792 5788 5787 5787 5785 5782 5779 5776 5771 5766 5760 5754 5748 5742 5735 5728 5721 5713 5705 5695 5686 5678 5670 5661 5652 5644 5636
5768 5770 5772 5776 5783 5785 5784 5786 5789 5790 5791 5791 5794 5792 5787 5786 5786 5784 5781 5780 5779 5777 5774 5770 5767 5762 5756 5750 5744 5738 5731 5724 5717 5710 5701 5692 5684 5677 5671 5663 5655 5647 5639 5631
5757 5759 5762 5766 5772 5779 5778 5779 5781 5783 5783 5783 5785 5780 5779 5776 5775 5775 5774 5774 5772 5770 5767 5763 5760 5754 5747 5741 5735 5728 5721 5714 5707 5699 5690 5682 5676 5670 5664 5657 5650 5642 5634 5626
5744 5748 5752 5756 5761 5766 5769 5766 5768 5769 5772 5776 5775 5768 5769 5767 5766 5767 5767 5765 5763 5761 5758 5756 5752 5745 5739 5732 5725 5718 5711 5703 5695 5687 5679 5674 5669 5664 5658 5651 5644 5636 5628 5620
5733 5734 5739 5743 5749 5754 5757 5755 5756 5759 5759 5760 5758 5752 5757 5758 5760 5760 5758 5757 5755 5753 5750 5747 5742 5736 5730 5723 5715 5708 5700 5692 5684 5676 5671 5667 5663 5658 5652 5646 5638 5630 5621 5612
5719 5721 5724 5728 5736 5741 5743 5747 5749 5751 5749 5748 5742 5744 5747 5751 5752 5751 5751 5749 5747 5745 5742 5738 5732 5727 5721 5714 5706 5699 5690 5681 5674 5669 5665 5662 5658 5653 5647 5640 5632 5623 5614 5605
5706 5709 5712 5715 5722 5724 5732 5735 5740 5739 5735 5737 5735 5737 5739 5742 5743 5743 5743 5742 5741 5738 5734 5729 5724 5718 5712 5705 5698 5690 5681 5674 5669 5665 5662 5658 5653 5647 5641 5634 5626 5617 5607 5598
5693 5697 5702 5704 5706 5712 5718 5722 5729 5728 5727 5730 5731 5731 5732 5734 5735 5736 5736 5736 5733 5729 5725 5721 5716 5710 5704 5698 5690 5682 5675 5671 5667 5663 5659 5654 5649 5643 5636 5628 5619 5610 5600 5591
5678 5682 5689 5692 5694 5699 5704 5708 5713 5717 5717 5721 5724 5725 5726 5727 5727 5729 5730 5728 5725 5721 5717 5713 5708 5702 5697 5691 5684 5677 5673 5669 5665 5661 5656 5651 5645 5638 5631 5622 5613 5603 5594 5584
5662 5667 5673 5679 5681 5684 5691 5696 5701 5707 5709 5712 5715 5717 5718 5719 5720 5720 5719 5718 5715 5712 5709 5705 5700 5695 5690 5684 5679 5675 5672 5668 5663 5658 5653 5647 5641 5633 5625 5615 5606 5597 5588 5578
5651 5656 5663 5669 5671 5676 5679 5684 5691 5695 5698 5703 5706 5708 5710 5710 5709 5709 5709 5708 5706 5703 5701 5697 5693 5689 5684 5680 5676 5673 5670 5666 5661 5656 5650 5644 5636 5628 5618 5609 5600 5591 5582 5572
5643 5648 5654 5660 5665 5671 5671 5675 5682 5688 5692 5695 5698 5700 5701 5701 5701 5701 5701 5699 5698 5696 5694 5691 5687 5683 5680 5677 5674 5672 5668 5664 5659 5653 5647 5640 5631 5622 5613 5603 5594 5584 5575 5566
5636 5639 5646 5652 5658 5664 5669 5673 5676 5679 5684 5689 5691 5692 5693 5694 5694 5694 5693 5692 5691 5690 5687 5685 5681 5678 5677 5675 5673 5670 5667 5662 5657 5651 5644 5636 5627 5617 5607 5598 5589 5579 5569 5560
5634 5638 5642 5649 5655 5660 5665 5668 5672 5675 5679 5682 5684 5686 5687 5688 5687 5687 5686 5686 5685 5683 5681 5679 5676 5675 5675 5674 5672 5669 5665 5660 5655 5648 5640 5631 5622 5612 5602 5594 5585 5575 5565 5555
5634 5637 5642 5647 5651 5656 5661 5664 5667 5670 5673 5676 5679 5681 5681 5681 5681 5681 5681 5680 5679 5678 5675 5674 5673 5674 5674 5673 5671 5668 5663 5658 5652 5645 5637 5628 5618 5609 5599 5590 5582 5572 5562 5552